Hourly Data Report for September 30, 2004

SHERBROOKE A
QUEBEC

45°26'00.000" N
71°41'00.000" W
241.40 m
7028124
71610
YSC

Download Data

Hourly Data (September 2004)
Hourly Data Report for September 30, 2004
TIME
LST
Temp Definition
°C
Dew Point Definition
°C
Rel Hum Definition
%
Precip. Amount Definition
mm

Wind Dir Definition
10's deg

Wind Spd Definition
km/h
Visibility Definition
km
Stn Press Definition
kPa
Hmdx Definition


Wind Chill Definition


Weather Definition


00:00 2.6 1.7 94     0 15.0 98.78      
01:00 2.2 1.3 94   9 4 15.0 98.76      
02:00 1.5 0.6 94   12 6 15.0 98.74      
03:00 1.0 0.0 93   12 4 15.0 98.77      
04:00 1.2 0.3 94   9 7 15.0 98.75      
05:00 0.9 0.0 94   13 4 15.0 98.80      
06:00 -0.2 -1.3 92     0 15.0 98.84      
07:00 1.7 0.8 94   11 4 15.0 98.91      
08:00 4.1 3.1 93   8 4 15.0 98.95      
09:00 6.8 5.3 90     0 15.0 98.95      
10:00 9.7 6.5 80   5 4 24.1 98.92     Mostly Cloudy
11:00 12.0 7.0 71     0 24.1 98.88     Mostly Cloudy
12:00 13.7 7.4 66   36 6 24.1 98.82     Mostly Cloudy
13:00 14.9 5.7 54     0 24.1 98.83     Mostly Cloudy
14:00 14.7 7.6 62     0 24.1 98.76     Mostly Cloudy
15:00 14.5 7.3 62   27 6 24.1 98.76     Mostly Cloudy
16:00 14.9 6.3 56     0 24.1 98.76     Mostly Cloudy
17:00 13.6 9.2 75     0 15.0 98.82      
18:00 11.6 9.1 85     0 15.0 98.83      
19:00 11.2 9.2 87   10 6 15.0 98.88      
20:00 10.4 8.6 89     0 15.0 98.91      
21:00 8.2 7.2 93     0 15.0 98.91      
22:00 6.9 6.0 94     0 15.0 98.94      
23:00 6.4 5.6 95   11 4 15.0 98.99      

Notes on Data Quality.

Legend

  • E = Estimated
  • M = Missing
  • NA = Not Available*
  • [empty] = Indicates an unobserved value
Date modified: